Location: S�o Paulo
(23.5330°S, 46.6170°W)
Time: 03:40:45
(UTC-03:00)

ISS - Visible Passes

Search period start: 30 March 2017 00:00
Search period end: 09 April 2017 00:00
Orbit: 399 x 409 km, 51.6° (Epoch: 30 March)

Date Brightness Start Highest point End Pass type
(mag) Time Alt. Az. Time Alt. Az. Time Alt. Az.
30 Mar -3.8 05:38:44 10° NW 05:42:02 84° SW 05:45:22 10° SE visible
31 Mar -2.3 04:48:29 25° N 04:49:45 35° NE 04:52:50 10° ESE visible
01 Apr -0.2 03:59:17 11° E 03:59:17 11° E 03:59:31 10° E visible
01 Apr -2.5 05:32:00 16° W 05:33:46 25° SW 05:36:35 10° SSE visible
02 Apr -2.5 04:42:36 33° SSE 04:42:36 33° SSE 04:44:38 10° SSE visible
